Weather History for Vandenberg AFB, CA

Change the Weather History Date:

Sunday, October 7, 2012

  Actual Average Record
Temperature  
Mean Temperature 59 °F -  
Max Temperature 68 °F 66 °F 93 °F (2002)
Min Temperature 50 °F 51 °F 45 °F (2007)
Degree Days  
Heating Degree Days 6    
Growing Degree Days 9 (Base 50)    
Moisture  
Dew Point 53 °F    
Average Humidity 86    
Maximum Humidity 100    
Minimum Humidity 61    
Precipitation  
Precipitation 0.00 in - - ()
Sea Level Pressure  
Sea Level Pressure 29.95 in    
Wind  
Wind Speed 7 mph (NW)    
Max Wind Speed 18 mph    
Max Gust Speed 25 mph    
Visibility 8 miles    
Events Fog    
Averages and records for this station are not official NWS values.
T = Trace of Precipitation, MM = Missing Value Source: NWS Daily Summary

Daily Weather History Graph

Daily Weather History Graph

Search for Another Location

Airport:

Trip Planner

Search our weather history database for the weather conditions in past years. The results will help you decide how hot, cold, wet, or windy it might be!

Date:

Astronomy

Oct. 07, 2012 Rise Set
Actual Time 7:02 AM PDT 6:37 PM PDT
Civil Twilight 6:36 AM PDT 7:02 PM PDT
Nautical Twilight 6:07 AM PDT 7:31 PM PDT
Astronomical Twilight 5:38 AM PDT 8:00 PM PDT
Moon No Moon Rise 1:33 PM PDT (10/7)
Length of Visible Light 12h 25m
Length of Day
11h 35m
Waning Gibbous, 55% of the Moon is Illuminated
Oct 7
Waning Gibbous
Oct 8
Last Quarter
Oct 15
New
Oct 21
First Quarter
Oct 29
Full

Hourly Weather History & Observations

Time (PDT) Temp. Dew Point Humidity Pressure Visibility Wind Dir Wind Speed Gust Speed Precip Events Conditions
12:55 AM 57.0 °F 55.0 °F 93% 29.93 in 10.0 mi WNW 6.9 mph - N/A   Clear
1:55 AM 55.9 °F 55.0 °F 97% 29.93 in 10.0 mi WNW 5.8 mph - N/A   Clear
2:55 AM 55.0 °F 53.1 °F 93% 29.92 in 10.0 mi West 5.8 mph - N/A   Clear
3:55 AM 54.0 °F 52.0 °F 93% 29.92 in 10.0 mi NNW 6.9 mph - N/A   Clear
4:55 AM 54.0 °F 52.0 °F 93% 29.92 in 10.0 mi WNW 4.6 mph - N/A   Clear
5:55 AM 54.0 °F 52.0 °F 93% 29.92 in 10.0 mi North 3.5 mph - N/A   Clear
6:55 AM 50.0 °F 48.9 °F 96% 29.94 in 9.0 mi ESE 5.8 mph - N/A   Clear
7:55 AM 54.0 °F 53.1 °F 97% 29.95 in 10.0 mi ESE 5.8 mph - N/A   Clear
8:55 AM 59.0 °F 55.0 °F 87% 29.96 in 10.0 mi East 4.6 mph - N/A   Clear
9:55 AM 64.0 °F 55.0 °F 73% 29.96 in 10.0 mi NNW 5.8 mph - N/A   Clear
10:55 AM 66.9 °F 53.1 °F 61% 29.95 in 10.0 mi NW 12.7 mph - N/A   Clear
11:55 AM 66.9 °F 54.0 °F 63% 29.95 in 10.0 mi NW 13.8 mph 18.4 mph N/A   Clear
12:55 PM 68.0 °F 55.0 °F 63% 29.94 in 10.0 mi NW 16.1 mph - N/A   Clear
1:55 PM 66.9 °F 55.0 °F 66% 29.92 in 10.0 mi NW 18.4 mph 24.2 mph N/A   Clear
2:55 PM 66.9 °F 54.0 °F 63% 29.92 in 10.0 mi WNW 15.0 mph 23.0 mph N/A   Clear
3:55 PM 66.0 °F 54.0 °F 65% 29.92 in 10.0 mi WNW 16.1 mph 24.2 mph N/A   Clear
4:55 PM 64.0 °F 54.0 °F 70% 29.92 in 10.0 mi WNW 18.4 mph 25.3 mph N/A   Clear
5:55 PM 62.1 °F 54.0 °F 75% 29.93 in 10.0 mi WNW 10.4 mph - N/A   Clear
6:55 PM 59.0 °F 54.0 °F 83% 29.95 in 10.0 mi WNW 10.4 mph - N/A   Clear
7:55 PM 57.0 °F 54.0 °F 89% 29.96 in 10.0 mi NNW 4.6 mph - N/A   Clear
8:55 PM 55.0 °F 53.1 °F 93% 29.96 in 10.0 mi WNW 3.5 mph - N/A   Clear
9:55 PM 53.1 °F 52.0 °F 96% 29.98 in 9.0 mi WNW 5.8 mph - N/A   Clear
10:55 PM 54.0 °F 53.1 °F 97% 29.97 in 10.0 mi NW 5.8 mph - N/A   Clear
11:25 PM 53.6 °F 53.6 °F 100% 30.00 in 2.0 mi Calm Calm - N/A   Clear
11:27 PM 53.6 °F 53.6 °F 100% 30.00 in 1.2 mi Calm Calm - N/A   Partly Cloudy
11:37 PM 53.6 °F 53.6 °F 100% 30.00 in 2.0 mi Calm Calm - N/A   Scattered Clouds
11:40 PM 53.6 °F 51.8 °F 94% 30.00 in 1.5 mi Calm Calm - N/A   Scattered Clouds
11:43 PM 53.6 °F 51.8 °F 94% 30.00 in 1.0 mi Calm Calm - N/A   Mist
11:46 PM 51.8 °F 51.8 °F 100% 30.00 in 0.5 mi Calm Calm - N/A Fog Fog
11:55 PM 53.1 °F 52.0 °F 96% 29.98 in 0.5 mi Calm Calm - N/A Fog Fog